Regional & State Weather Roundups


909 
ASUS44 KLUB 250110
RWRLUB
WEST TEXAS WEATHER ROUNDUP
NATIONAL WEATHER SERVICE LUBBOCK TX
800 PM CDT MON JUN 24 2019
NOTE: "FAIR" INDICATES FEW OR NO CLOUDS BELOW 12,000 FEET WITH NO
SIGNIFICANT WEATHER AND/OR OBSTRUCTIONS TO VISIBILITY.
TXZ004-006>008-010-012-014-016-OKZ002-250200-
TEXAS PANHANDLE/OKLAHOMA PANHANDLE
  
CITY           SKY/WX    TMP DP  RH WIND       PRES   REMARKS
AMARILLO       SUNNY     83  48  29 SE16      29.91S                  
BORGER         SUNNY     87  49  26 SE10      29.90S                  
CANADIAN       SUNNY     83  55  37 S7        29.89R                  
DALHART        SUNNY     83  45  26 S10       29.92F                  
DUMAS          SUNNY     83  45  26 SE7       29.92S                  
GUYMON         SUNNY     83  52  34 S7        29.88S                  
HEREFORD       SUNNY     86  50  28 S10       29.92S                  
PAMPA          SUNNY     81  50  33 SE15      29.93S                  
PERRYTON       SUNNY     80  55  42 S5        29.90R                  
$$
TXZ026-029-035-045-048-250200-
SOUTHERN PANHANDLE/SOUTH PLAINS/ROLLING PLAINS
  
CITY           SKY/WX    TMP DP  RH WIND       PRES   REMARKS
CHILDRESS      CLEAR     85  55  35 SE17      29.89R                  
SEMINOLE       SUNNY     86  56  35 E18       29.92R                  
LUBBOCK        TSTM      71  65  81 S22G29    29.94R                  
PLAINVIEW      SUNNY     82  59  46 SE14      29.91S                  
SNYDER         PTCLDY    82  71  69 SE10G24   29.87F                  
$$
TXZ052-054-060>062-072-078-127-140-154-169-250200-
PERMIAN BASIN/CONCHO VALLEY/BIG COUNTRY/EDWARDS PLATEAU  
  
CITY           SKY/WX    TMP DP  RH WIND       PRES   REMARKS
ABILENE        PTCLDY    85  51  31 SE28G37   29.81F                  
BIG SPRING     CLEAR     76  67  74 E17G29    29.86S                  
BRADY          CLEAR     79  66  65 SE7       29.91R                  
BROWNWOOD      MOCLDY    81  64  57 SE23G30   29.86S                  
JUNCTION       CLEAR     84  66  54 S8G20     29.89R                  
MIDLAND        SUNNY     89  66  46 E24G40    29.85R                  
ODESSA         SUNNY     97  29   9 W10       29.85R                  
SAN ANGELO     LGT RAIN  68  61  78 S12G24    29.89S                  
SONORA         CLEAR     82  68  61 NE18G26   29.99R                  
SWEETWATER     CLEAR     81  69  67 SE10      29.90F                  
WINK           SUNNY     98  24   7 W3        29.81S                  
$$
TXZ055-058-074-075-080-082-250200-
FAR WEST/SOUTHWEST MOUNTAINS/TRANS PECOS
  
CITY           SKY/WX    TMP DP  RH WIND       PRES   REMARKS
ALPINE         SUNNY     92  28  10 E9G22     29.99S                  
DRYDEN           N/A     87  72  60 SE12G23   29.80S                  
EL PASO        MOSUNNY   94  18   6 W12G18    29.89S                  
FORT STOCKTON  SUNNY     95  40  14 E10       29.84S                  
GUADALUPE PASS SUNNY     89  16   7 SW15G25   30.02F                  
MARFA          SUNNY     89  31  12 E5        29.98S                  
PECOS          SUNNY     98  29   8 CALM      29.80S                  
PRESIDIO       FAIR     100  38  11 SE9       29.79S HX  95           
$$
TXZ014-016-019-021>030-083-250200
TEXAS TECH WEST TEXAS MESONET/TEXAS PANHANDLE/NORTHERN SOUTH PLAINS
  
CITY           SKY/WX    TMP DP  RH WIND       PRES   REMARKS
ABERNATHY 5ENE   N/A     84  60  43 E16       29.93R                  
AMARILLO 9NNE    N/A     83  51  32 SE12      29.90S                  
AMARILLO 7SSE    N/A     83  49  31 SE13      29.94R                  
AMHERST 1NE      N/A     85  55  35 SE7       29.91R                  
BOOTLEG 11WNW    N/A     84  40  21 SW7       29.97R                  
CANADIAN 6E      N/A     81  56  42 S8        29.88S                  
CAPROCK CYN SP   N/A     83  59  44 SE16      29.91S                  
CHILDRESS 2NNE   N/A     83  54  36 SE10      29.89R                  
CLARENDON 2WSW   N/A     83  50  32 SE16      29.92R                  
CLAUDE 12SW      N/A     82  52  35 SE10      29.93S                  
DIMMITT 2NE      N/A     85  50  29 SE10      29.93R                  
FLOYDADA 2NNE    N/A     80  59  48 E16       29.95R                  
FRIONA 2NE       N/A     85  44  23 S8        29.93S                  
GOODLETT 3W      N/A     85  58  39 SE14      29.87R                  
HART 3N          N/A     84  53  34 E12       29.92S                  
HEREFORD 2NW     N/A     85  45  24 S6        29.92S                  
MEMPHIS 1NE      N/A     85  52  31 E12       29.89R                  
MULESHOE 2SSW    N/A     86  51  30 S2        29.91S                  
OLTON 6S         N/A     84  55  36 E13       29.91R                  
PALO DURO SP     N/A     83  52  33 SE13      29.93S                  
PAMPA 2E         N/A     79  52  38 SE14      29.93S                  
PLAINVIEW 1S     N/A     82  62  50 E14       29.92R                  
SILVERTON 7ESE   N/A     80  57  44 E12       29.93S                  
TULIA 2ENE       N/A     82  57  43 E14       29.93R                  
TURKEY 2WSW      N/A     85  60  42 E15       29.89S                  
UMBARGER 3NNE    N/A     84  51  31 SE7       29.94R                  
$$
TXZ033>036-039>041-045>048-250200
TEXAS TECH WEST TEXAS MESONET/SOUTH PLAINS  
  
CITY           SKY/WX    TMP DP  RH WIND       PRES   REMARKS
AIKEN 3WSW       N/A     83  62  49 E18       29.95R                  
ANDREWS 2NE      N/A     87  56  34 E15       29.88R                  
ANTON 6SSW       N/A     84  51  31 E22       29.91R                  
BROWNFIELD 2S    N/A     83  65  53 E16       29.89R                  
DENVR CTY 7WNW   N/A     92  32  11 W7        29.89R                  
GAIL 2ESE        N/A     80  70  72 E10       29.86R                  
LAMESA 2SE       N/A     80  56  42 E15       29.88R                  
LUBBOCK 3WNW     N/A     65  64  95 E14       29.92R                  
MORTON 1ENE      N/A     91  40  17 CALM      29.90S                  
ODONNELL 1N      N/A     81  64  56 E16       29.88S                  
PLAINS 3N        N/A     91  40  17 W7        29.90R                  
RALLS 1SE        N/A     81  59  47 E15       29.94R                  
REESE CENTER     N/A     73  59  62 SE23      29.94R                  
SEAGRAVES 1SW    N/A     83  64  50 E14G23    29.88R                  
SEMINOLE 2NNE    N/A     85  54  33 E16       29.88R                  
SLATON 2NE     LGT RAIN  73  68  84 NE13      29.92R                  
SNYDER 3E        N/A     81  69  68 E13       29.86R                  
SUNDOWN 8SW      N/A     90  43  19 S3        29.89S                  
TAHOKA 3NNE      N/A     78  70  75 E13       29.90R                  
WOLFFORTH 6SSW   N/A     77  58  53 NE24      29.93R                  
$$
TXZ031-032-036>038-042>044-250200-
TEXAS TECH WEST TEXAS MESONET/ROLLING PLAINS 
  
CITY           SKY/WX    TMP DP  RH WIND       PRES   REMARKS
ASPERMONT 3NE    N/A     82  72  72 E7        29.86S                  
FLUVANNA 3WNW    N/A     78  69  75 E14       29.86F                  
GRAHAM 5SSW      N/A     81  66  59 E17       29.89R                  
GUTHRIE 10WSW    N/A     81  63  54 E6        29.88R                  
HASKELL 1NW      N/A     82  71  68 SE13      29.86S                  
JAYTON 1SSE      N/A     82  68  63 E6        29.88R                  
KNOX CITY 3NW    N/A     84  70  62 E13       29.86S                  
LK A HENRY 1NW   N/A     82  70  67 E10       29.86S                  
NORTHFIELD 1S    N/A     84  57  38 SE12      29.89R                  
ODELL 4ENE       N/A     85  59  41 E9        29.88R                  
PADUCAH 10SW     N/A     83  62  48 SE13      29.89R                  
POST 1NE         N/A     82  66  58 E14       29.88S                  
RRING SPRGS 3N   N/A     80  63  55 SE10      29.92R                  
SEYMOUR 3NW      N/A     82  69  66 E12       29.87R                  
SPUR 1W          N/A     81  63  53 E8        29.88R                  
WEINERT 2NNE     N/A     83  71  67 SE17      29.87S                  
WHITE RVR 6NE    N/A     80  64  56 E10       29.91R                  
$$
TXZ052-054-060>062-072-078-127-140-154-169-250200-
TEXAS TECH WEST TEXAS MESONET/PERMIAN BASIN/
CONCHO VALLEY/BIG COUNTRY/EDWARDS PLATEAU
  
CITY           SKY/WX    TMP DP  RH WIND       PRES   REMARKS
COYANOSA 2N      N/A     98  30   9 E3        29.81R                  
JUNCTION 1SSW    N/A     83  65  55 S10       29.88R                  
MERTZON 3NNE     N/A     67  62  82 E17       29.89F                  
SAN ANGELO 7NW   N/A     68  59  74 SE13      29.89R                  
STRLNG CT 4WSW   N/A     72  65  78 E6        29.88S                  
ST LAWRNCE 5SW   N/A     84  58  40 E15       29.86R                  
SWEETWATR 11SW   N/A     78  70  76 E13       29.91S                  
WALL 1E          N/A     71  59  66 SE24      29.89F                  
$$
TXZ055-058-074-075-080-082-250200-
TEXAS TECH WEST TEXAS MESONET/FAR WEST/SOUTHWEST MOUNTAINS/TRANS PECOS
  
CITY           SKY/WX    TMP DP  RH WIND       PRES   REMARKS
PRSMN GAP BBNP   N/A     90  49  24 E12       29.83S                  
GUADLPE MTN NP   N/A     85  19   8 SW9       30.04S                  
$$